[[{"header":{"parameterUnit":"m.s-1","parameterCategory":1,"la1":30.2991,"la2":30.254,"lo1":-89.0895,"lo2":-89.0444,"dy":0.0017,"dx":0.0017,"nx":28,"ny":28,"refTime":"2025-04-10T03:00:00:Z","depth":0,"parameterNumber":2,"parameterNumberName":"U-component_of_WINDS"},"data":[0,0,0,0,0,0,0,0,0,0,0,0,0,0,0,0,0,0,0,0,0,0,0,0,0,0,0,0,0,0,0,0,0,0,0,0,0,0,0,0,0,0,0,0,0,0,0,0,0,0,0,0,0,0,0,0,0,0,2.6496,2.6496,0,2.6564,2.6565,2.6566,2.6573,2.6572,2.6571,2.6571,2.6645,2.6647,2.665,0,0,0,0,0,0,0,0,0,0,0,0,0,2.6376,2.6378,2.6496,2.6496,2.6497,2.6564,2.6565,2.6566,2.6573,2.6572,2.6571,2.657,2.6644,2.6647,2.665,0,0,0,0,0,0,0,0,0,0,0,0,0,2.6435,2.6379,2.6496,2.6509,2.6511,2.6564,2.6565,2.6566,2.6573,2.6572,2.6571,2.657,2.6643,2.6647,2.6651,2.6696,0,0,2.6663,2.6664,0,0,0,0,0,0,0,0,2.6431,2.6439,2.6506,2.6508,2.651,2.6559,2.655,2.661,2.6573,2.655,2.6571,2.6569,2.6617,2.6623,2.6639,2.67,2.6703,2.6663,2.6665,2.6667,2.6668,0,0,0,0,0,0,0,2.6427,2.6436,2.6523,2.6507,2.651,2.6513,2.652,2.6561,2.6589,2.6552,2.6552,2.656,2.6618,2.6635,2.664,2.6704,2.6663,2.6666,2.6669,2.667,2.6808,2.681,0,0,0,0,0,0,2.642,2.6433,2.6521,2.6525,2.6467,2.6516,2.6524,2.6544,2.6588,2.6594,2.6561,2.656,2.6628,2.6636,2.6643,2.6701,2.6667,2.6671,2.6673,2.6807,2.6809,2.681,0,0,0,0,0,0,2.6418,2.6428,2.6518,2.6479,2.6491,2.6519,2.6542,2.6546,2.6563,2.6595,2.6601,2.6572,2.6628,2.6637,2.6683,2.6703,2.6672,2.6676,2.6806,2.6808,2.6809,2.6816,0,0,0,0,0,0,2.6414,2.6427,2.6443,2.6479,2.6493,2.6555,2.6543,2.6548,2.6569,2.6569,2.6607,2.6613,2.6628,2.6677,2.6687,2.6708,2.6679,2.6804,2.6807,2.6809,2.6814,2.6818,2.6821,0,0,0,0,0,2.641,2.6443,2.6444,2.6455,2.6514,2.6557,2.6564,2.658,2.657,2.6588,2.6609,2.6612,2.6699,2.6682,2.6693,2.6716,2.6803,2.6806,2.6809,2.6813,2.6817,2.6821,0,0,0,0,0,0,2.641,2.6448,2.645,2.6495,2.6522,2.6558,2.658,2.6584,2.6616,2.6614,2.6633,2.6642,2.6687,2.6706,2.6686,2.6763,2.675,2.6756,2.675,2.6754,2.6758,2.6753,2.6682,0,0,0,0,0,2.6414,2.6445,2.6477,2.6514,2.6528,2.6552,2.6571,2.658,2.661,2.6622,2.6647,2.6677,2.6711,2.6734,2.6767,2.6817,2.6826,2.6838,2.6841,2.6844,2.6849,2.6879,2.6885,2.682,2.682,2.682,0,0,2.6426,2.645,2.6468,2.6515,2.6537,2.657,2.6561,2.6596,2.6621,2.6628,2.6673,2.6692,2.6727,2.6775,2.6798,2.6792,2.6869,2.6848,2.685,2.6853,2.6882,2.6889,2.6894,2.6822,2.6821,2.6821,0,0,2.6463,2.6483,2.6517,2.654,2.6574,2.659,2.6598,2.6633,2.6646,2.669,2.6697,2.6728,2.6786,2.6811,2.6832,2.688,2.6884,2.689,2.6909,2.6938,2.6943,2.6948,2.6967,2.6973,2.6895,2.6895,2.6895,0,2.6473,2.6521,2.6535,2.6569,2.6591,2.6597,2.6633,2.6655,2.6698,2.6714,2.6706,2.6781,2.6805,2.686,2.6872,2.6888,2.6899,2.6887,2.6941,2.6946,2.6951,2.6969,2.6976,2.6896,2.6895,2.6895,2.6895,0,2.6532,2.6566,2.6589,2.663,2.6654,2.6689,2.671,2.6733,2.6741,2.6758,2.6805,2.6834,2.6874,2.6888,2.6896,2.6945,2.694,2.6937,2.6924,2.6957,2.6975,2.6982,2.6896,2.6896,2.6896,2.6896,0,0,2.6571,2.662,2.6628,2.6648,2.6686,2.6713,2.6749,2.6788,2.6808,2.6838,2.687,2.692,2.6917,2.694,2.6952,2.6977,2.7015,2.697,2.6972,2.6979,2.7074,2.7077,2.7085,2.7018,2.7019,2.702,2.7071,0,2.6614,2.6677,2.6692,2.6747,2.6779,2.6787,2.6818,2.6846,2.6864,2.6895,2.6915,2.695,2.6943,2.6958,2.6983,2.7005,2.7035,2.7001,2.705,2.7052,2.7042,2.7094,2.7097,2.7144,2.7078,2.7079,2.708,0,2.6672,2.6703,2.6761,2.6796,2.6811,2.6839,2.6876,2.6905,2.6938,2.6949,2.6975,2.6984,2.7024,2.7009,2.7066,2.7043,2.7063,2.7078,2.708,2.7086,2.7069,2.7103,2.7159,2.7167,2.7091,2.709,2.7089,0,2.6697,2.6753,2.6796,2.6812,2.6854,2.6874,2.6892,2.6924,2.6946,2.6979,2.6995,2.7032,2.7053,2.7083,2.7102,2.7089,2.7158,2.7144,2.7171,2.717,2.7186,2.7185,2.7247,2.7197,2.7196,2.7196,2.7196,0,2.6744,2.678,2.6808,2.6834,2.6875,2.6892,2.6932,2.6951,2.6979,2.7011,2.702,2.705,2.7073,2.7106,2.7122,2.7168,2.7177,2.7188,2.7192,2.7189,2.7187,2.7203,2.7201,2.7198,2.7198,2.7197,2.7197,0,2.678,2.6799,2.6846,2.6882,2.6892,2.6921,2.6952,2.6979,2.6996,2.7036,2.7047,2.7075,2.7115,2.7137,2.7188,2.7198,2.725,2.7252,2.7239,2.7241,2.7266,2.7264,2.7343,2.7355,2.7294,2.7295,2.7295,0,2.6809,2.6837,2.6875,2.6897,2.6915,2.6949,2.6972,2.6991,2.7015,2.7055,2.7077,2.7117,2.7151,2.7215,2.7241,2.728,2.7284,2.7309,2.729,2.7286,2.7286,2.7285,2.7289,2.7312,2.7313,2.7313,2.7314,0,2.686,2.6869,2.6901,2.6937,2.6964,2.6994,2.7023,2.704,2.7064,2.7091,2.7131,2.7157,2.7208,2.7249,2.729,2.7312,2.7318,2.7319,2.7328,2.7325,2.7317,2.7323,2.7249,2.7318,2.7317,2.7317,2.7317,2.7317,2.6895,2.6921,2.6952,2.6988,2.7012,2.7039,2.7067,2.7088,2.7121,2.7164,2.7173,2.7216,2.725,2.7306,2.7328,2.7364,2.7359,2.7371,2.7374,2.7377,2.7379,2.731,2.7371,2.7371,2.7371,2.7371,2.7371,0,2.6948,2.6969,2.7002,2.7042,2.7071,2.7072,2.7105,2.713,2.7168,2.7198,2.723,2.7278,2.7318,2.7347,2.7388,2.7411,2.7415,2.7421,2.7421,2.7426,2.738,2.7369,2.7418,2.7418,2.7418,2.7418,2.7418,2.7418,2.6979,2.7023,2.7036,2.7092,2.7113,2.7154,2.7173,2.72,2.7224,2.7276,2.7309,2.7327,2.7358,2.7401,2.7439,2.7446,2.7462,2.7468,2.7477,2.7434,2.7429,2.7424,2.7414,2.7471,2.7471,2.752,2.752,2.7521]},{"header":{"parameterUnit":"m.s-1","parameterCategory":1,"la1":30.2991,"la2":30.254,"lo1":-89.0895,"lo2":-89.0444,"dy":0.0017,"dx":0.0017,"nx":28,"ny":28,"refTime":"2025-04-10T03:00:00:Z","depth":0,"parameterNumber":3,"parameterNumberName":"V-component_of_WINDS"},"data":[0,0,0,0,0,0,0,0,0,0,0,0,0,0,0,0,0,0,0,0,0,0,0,0,0,0,0,0,0,0,0,0,0,0,0,0,0,0,0,0,0,0,0,0,0,0,0,0,0,0,0,0,0,0,0,0,0,0,1.0196,1.0195,0,1.0144,1.0144,1.0143,1.0109,1.0109,1.0108,1.0108,1.0054,1.0053,1.0052,0,0,0,0,0,0,0,0,0,0,0,0,0,1.0262,1.0261,1.0196,1.0195,1.0195,1.0144,1.0144,1.0143,1.0109,1.0109,1.0108,1.0108,1.0055,1.0053,1.0052,0,0,0,0,0,0,0,0,0,0,0,0,0,1.0224,1.0261,1.0196,1.0172,1.0169,1.0145,1.0144,1.0143,1.0109,1.0109,1.0108,1.0108,1.0055,1.0053,1.0051,1.0047,0,0,1.0046,1.0045,0,0,0,0,0,0,0,0,1.0226,1.0222,1.0176,1.0173,1.017,1.0133,1.0147,1.0111,1.0109,1.0132,1.0108,1.0108,1.008,1.0077,1.0068,1.0044,1.0042,1.0046,1.0045,1.0044,1.0043,0,0,0,0,0,0,0,1.0229,1.0224,1.0175,1.0175,1.0172,1.0162,1.0156,1.014,1.0109,1.013,1.0127,1.0121,1.0079,1.0069,1.0066,1.0041,1.0046,1.0044,1.0043,1.0042,1.0008,1.0008,0,0,0,0,0,0,1.0236,1.0226,1.0177,1.0174,1.0198,1.0161,1.0155,1.0145,1.0109,1.0103,1.0122,1.012,1.0073,1.0068,1.0064,1.0054,1.0044,1.0042,1.0041,1.0008,1.0008,1.0008,0,0,0,0,0,0,1.0237,1.0232,1.0179,1.0199,1.0192,1.0161,1.015,1.0144,1.0135,1.0103,1.0097,1.0118,1.0072,1.0067,1.0051,1.0052,1.0041,1.004,1.0007,1.0008,1.0008,1.0035,0,0,0,0,0,0,1.0239,1.0233,1.0231,1.02,1.0191,1.0168,1.015,1.0143,1.0132,1.0129,1.0098,1.0092,1.0072,1.0054,1.0049,1.0049,1.0038,1.0007,1.0007,1.0008,1.0034,1.0037,1.0038,0,0,0,0,0,1.0242,1.0242,1.0232,1.0226,1.0189,1.0168,1.0163,1.014,1.0132,1.013,1.0109,1.0093,1.0052,1.0052,1.0047,1.0046,1.0007,1.0007,1.0008,1.0033,1.0036,1.0038,0,0,0,0,0,0,1.0275,1.0237,1.0226,1.0215,1.0195,1.0162,1.0159,1.0144,1.0125,1.0123,1.0095,1.0088,1.0074,1.0059,1.0059,1.0038,1.0028,1.0027,1.0049,1.0051,1.0053,1.0057,1.0037,0,0,0,0,0,1.0281,1.0268,1.0235,1.0229,1.022,1.0191,1.0181,1.0165,1.0142,1.0134,1.0112,1.009,1.0072,1.0061,1.0043,1.0032,1.0023,1.0028,1.003,1.0032,1.0032,1.0022,1.0023,1.0009,1.0009,1.0009,0,0,1.0293,1.0271,1.0265,1.0235,1.0218,1.0203,1.0184,1.0171,1.0159,1.0132,1.0115,1.0097,1.0071,1.0057,1.0049,1.0043,1.0033,1.0033,1.0035,1.0033,1.0022,1.0024,1.0025,1.001,1.001,1.001,0,0,1.0308,1.0291,1.0283,1.0265,1.0239,1.0219,1.0217,1.0186,1.0173,1.0156,1.0134,1.0119,1.009,1.0071,1.0058,1.0062,1.0046,1.0057,1.0068,1.0059,1.006,1.0061,1.0061,1.0061,1.0057,1.0057,1.0057,0,1.0327,1.0305,1.0281,1.0267,1.0254,1.0228,1.0218,1.0202,1.0171,1.0161,1.0155,1.0115,1.0096,1.0075,1.0076,1.0067,1.0062,1.0061,1.0062,1.0063,1.0063,1.0062,1.0062,1.0058,1.0058,1.0058,1.0058,0,1.0328,1.0314,1.031,1.028,1.0266,1.0255,1.0227,1.0216,1.0199,1.018,1.0161,1.0137,1.0112,1.0106,1.009,1.0082,1.0079,1.0068,1.0057,1.0066,1.0065,1.0064,1.006,1.006,1.0059,1.0059,0,0,1.0364,1.0319,1.0318,1.0302,1.027,1.0257,1.0244,1.0219,1.0209,1.0188,1.0174,1.0148,1.0137,1.0121,1.0103,1.0095,1.0098,1.0085,1.0083,1.0086,1.0084,1.0092,1.0092,1.0087,1.0087,1.0087,1.0086,0,1.0373,1.0348,1.0324,1.0307,1.0291,1.0265,1.0252,1.023,1.0211,1.0194,1.0173,1.0154,1.0142,1.0132,1.0123,1.0099,1.0097,1.0099,1.0072,1.0072,1.0079,1.0092,1.0101,1.0102,1.0085,1.0085,1.0085,0,1.038,1.0359,1.0341,1.0307,1.03,1.029,1.0264,1.0249,1.0222,1.0208,1.019,1.017,1.0152,1.0143,1.0117,1.0119,1.0106,1.0093,1.0092,1.0088,1.0079,1.0087,1.0102,1.0101,1.0085,1.0085,1.0085,0,1.0405,1.0373,1.0357,1.0345,1.0306,1.0299,1.0282,1.0255,1.0241,1.0218,1.0208,1.0184,1.017,1.015,1.0123,1.0119,1.0099,1.0088,1.0086,1.0086,1.0083,1.0083,1.0094,1.0076,1.0076,1.0076,1.0076,0,1.0417,1.0406,1.0367,1.0358,1.0344,1.0315,1.0302,1.0283,1.0259,1.0243,1.0219,1.0204,1.0171,1.0152,1.013,1.011,1.0105,1.0092,1.0086,1.0094,1.0095,1.0085,1.0084,1.0076,1.0076,1.0076,1.0076,0,1.0443,1.0417,1.0397,1.0362,1.0352,1.0344,1.0312,1.0301,1.028,1.026,1.0254,1.022,1.0196,1.0168,1.0135,1.012,1.0102,1.0094,1.0111,1.0108,1.0106,1.0106,1.011,1.0108,1.0093,1.0093,1.0093,0,1.0452,1.0443,1.0406,1.0394,1.0378,1.0359,1.0344,1.0315,1.0301,1.0268,1.026,1.0234,1.0212,1.0174,1.0146,1.012,1.0111,1.0114,1.0107,1.0113,1.0109,1.0109,1.0107,1.0115,1.0116,1.0116,1.0116,0,1.0469,1.0456,1.0437,1.0411,1.0394,1.0373,1.0351,1.0342,1.0308,1.0292,1.0268,1.025,1.0216,1.019,1.0159,1.014,1.0122,1.0119,1.0116,1.0124,1.0133,1.0126,1.0115,1.0119,1.0118,1.0118,1.0118,1.0118,1.0486,1.0476,1.0448,1.0426,1.0405,1.0385,1.0371,1.0348,1.0327,1.0297,1.0281,1.0256,1.0226,1.0184,1.0165,1.0144,1.0138,1.0135,1.0134,1.0134,1.0135,1.0137,1.0139,1.0139,1.0138,1.0138,1.0138,0,1.0501,1.0481,1.0461,1.043,1.0412,1.0397,1.0371,1.0356,1.0335,1.0309,1.0288,1.0258,1.0232,1.0201,1.0172,1.0161,1.0152,1.0154,1.0154,1.015,1.0143,1.0147,1.0162,1.0162,1.0162,1.0162,1.0162,1.0162,1.0506,1.0488,1.0471,1.0441,1.0421,1.0397,1.0383,1.0363,1.0342,1.031,1.0289,1.0269,1.024,1.0209,1.0183,1.0175,1.0165,1.017,1.0158,1.0153,1.0151,1.0149,1.0152,1.0168,1.0168,1.0166,1.0166,1.0166]}]]